Powrót do katalogu

STARLINK-32633

AktywnyŁącznośćVLEO
NORAD 62306·PAYLOAD·🇺🇸 United States

Wystrzelony Dec 13, 2024 z Vandenberg Space Force Base

Loading…

Następne Przeloty (najbliższe 24 godziny)

TLE

ŚwieżeSource: CelesTrak SupGP

Epoka: Sep 14, 2026, 15:16 UTC

1 62306C 24239F   26257.63659722 -.00076370  00000+0 -22567-2 0  2574
2 62306  53.1603  33.2958 0001257  82.2793 312.5098 15.34424281    16

Śledź STARLINK-32633 w czasie rzeczywistym z AllMySat

Download on the App Store